User: anonymous   Login
Location: Oberwangen
(47.4286°N, 8.9679°E)
Time: 07:02:53
(UTC+00:00)
Language:

FLOCK 4V 21 - Orbit

View from above orbital plane
View from above orbital plane
View from above satellite
View from above satellite

Ground track
Ground track

The orbit data is extracted from the following two-line orbital elements,

1 46596U 20061BK  22028.76826132  .00003790  00000-0  19167-3 0  9994
2 46596  97.4094 102.6339 0002993 221.9756 138.1249 15.17633116 71419
Epoch (UTC): 28 January 2022 18:26:17
Eccentricity: 0.0002993
inclination: 97.4094°
perigee height: 511 km
apogee height: 515 km
right ascension of ascending node: 102.6339°
argument of perigee: 221.9756°
revolutions per day: 15.17633116
mean anomaly at epoch: 138.1249°
orbit number at epoch: 7141

The dashed part of the orbit path shows where the satellite is in the earth's shadow,  

DLR